User: anonymous   Login
Location: Irma
(52.9170°N, 111.2330°W)
Time: 19:41:07
(UTC-07:00)
Language:

Cosmos 1633 Rocket - Orbit

View from above orbital plane
View from above orbital plane
View from above satellite
View from above satellite

Ground track
Ground track

The orbit data is extracted from the following two-line orbital elements,

1 15593U 85020B   16039.95115914 +.00000252 +00000-0 +27338-4 0  9998
2 15593 082.5388 005.1110 0010448 227.0820 188.7056 14.84171013649896
Epoch (UTC): 08 February 2016 22:49:40
Eccentricity: 0.0010448
inclination: 82.5388°
perigee height: 609 km
apogee height: 623 km
right ascension of ascending node: 5.1110°
argument of perigee: 227.0820°
revolutions per day: 14.84171013
mean anomaly at epoch: 188.7056°
orbit number at epoch: 64989

The dashed part of the orbit path shows where the satellite is in the earth's shadow,  

DLR